[[[{"header":{"parameterUnit":"kt","parameterCategory":2,"dx":1,"dy":1,"la1":30.253999710083008,"la2":30.299108505249023,"lo1":-89.0895004272461,"lo2":-89.04439544677734,"nx":28,"ny":28,"refTime":"2022-10-31T21:00:00:Z","depth":0,"parameterNumber":1,"parameterNumberName":"U-component_of_WINDS"},"data":[-2.5491,-2.5437,-2.5388,-2.5305,-2.5247,-2.5182,-2.5143,-2.5088,-2.5032,-2.495,-2.4895,-2.484,-2.4765,-2.4689,-2.4627,-2.4604,-2.4583,-2.4602,-2.4572,-2.4529,-2.4519,-2.4511,-2.452,-2.4598,-2.4598,-2.4625,-2.4626,-2.4626,-2.5475,-2.5416,-2.5356,-2.5264,-2.5214,-2.5166,-2.509,-2.5051,-2.4994,-2.4923,-2.4864,-2.4788,-2.4721,-2.4636,-2.4565,-2.4541,-2.4515,-2.4526,-2.4527,-2.4517,-2.4468,-2.4478,-2.4549,-2.4549,-2.4549,-2.4549,-2.4549,-2.4549,-2.5431,-2.54,-2.5313,-2.5247,-2.5186,-2.5126,-2.5087,-2.5018,-2.4959,-2.4874,-2.4825,-2.4759,-2.4678,-2.4564,-2.4513,-2.4462,-2.4441,-2.4437,-2.4436,-2.4437,-2.4446,-2.4422,-2.4447,-2.4447,-2.4446,-2.4446,-2.4446,0,-2.5383,-2.5344,-2.528,-2.5203,-2.5151,-2.5085,-2.5017,-2.4991,-2.4886,-2.4841,-2.4772,-2.4724,-2.4629,-2.4559,-2.4478,-2.4424,-2.4369,-2.4356,-2.4354,-2.4379,-2.4414,-2.4398,-2.4324,-2.4355,-2.4354,-2.4354,-2.4353,-2.4353,-2.5338,-2.5304,-2.5187,-2.515,-2.5098,-2.5038,-2.4992,-2.4901,-2.4856,-2.4758,-2.4735,-2.4662,-2.4599,-2.4497,-2.4415,-2.4344,-2.4316,-2.4335,-2.4304,-2.4332,-2.432,-2.4324,-2.4322,-2.4342,-2.4344,-2.4345,-2.4346,0,-2.5318,-2.5231,-2.5162,-2.5047,-2.5017,-2.4988,-2.489,-2.4853,-2.4787,-2.4729,-2.471,-2.4607,-2.454,-2.4453,-2.4357,-2.4315,-2.4273,-2.4246,-2.4302,-2.4293,-2.4303,-2.4304,-2.4343,-2.4345,-2.426,-2.4261,-2.4262,0,-2.5245,-2.5204,-2.5077,-2.5041,-2.4994,-2.49,-2.4857,-2.4794,-2.4718,-2.4671,-2.4592,-2.455,-2.4443,-2.439,-2.4325,-2.4274,-2.4255,-2.422,-2.4204,-2.4227,-2.4233,-2.4203,-2.42,-2.4163,-2.4163,-2.4163,-2.4163,0,-2.5224,-2.5104,-2.5045,-2.5004,-2.4874,-2.4849,-2.4794,-2.4706,-2.4661,-2.4587,-2.4558,-2.4479,-2.4437,-2.4379,-2.4297,-2.4281,-2.4231,-2.4191,-2.4195,-2.4197,-2.4188,-2.419,-2.4246,-2.4163,-2.4163,-2.4163,-2.4163,0,-2.515,-2.5075,-2.5001,-2.4892,-2.4864,-2.4824,-2.474,-2.4685,-2.4598,-2.4553,-2.4495,-2.443,-2.4374,-2.4342,-2.4265,-2.4268,-2.4232,-2.4191,-2.419,-2.418,-2.4147,-2.4193,-2.4253,-2.4257,-2.4173,-2.4173,-2.4173,0,-2.5152,-2.5051,-2.4968,-2.4899,-2.484,-2.4754,-2.4708,-2.4631,-2.4568,-2.451,-2.444,-2.4374,-2.433,-2.4297,-2.4271,-2.4196,-2.4193,-2.4193,-2.4116,-2.4115,-2.4145,-2.4199,-2.423,-2.4249,-2.4173,-2.4173,-2.4173,0,-2.5141,-2.4978,-2.4971,-2.492,-2.4799,-2.4748,-2.4695,-2.4607,-2.4574,-2.4493,-2.4448,-2.4351,-2.4316,-2.426,-2.4197,-2.4175,-2.4193,-2.4138,-2.4135,-2.4154,-2.4163,-2.4194,-2.4198,-2.4157,-2.4156,-2.4156,-2.4172,0,-2.5055,-2.499,-2.4966,-2.4851,-2.4796,-2.4745,-2.4646,-2.4603,-2.4548,-2.448,-2.441,-2.4319,-2.4229,-2.4207,-2.4151,-2.4125,-2.4116,-2.4077,-2.4038,-2.4073,-2.4077,-2.4077,-2.4043,-2.4041,-2.4039,-2.4038,0,0,-2.508,-2.4983,-2.4889,-2.4831,-2.4779,-2.4686,-2.4642,-2.458,-2.4457,-2.4425,-2.4402,-2.4252,-2.4178,-2.4103,-2.4106,-2.4068,-2.4056,-2.4045,-2.4057,-2.4059,-2.4061,-2.4066,-2.4069,-2.4036,-2.4035,-2.4034,-2.4034,0,-2.5027,-2.4951,-2.4905,-2.4837,-2.4732,-2.466,-2.465,-2.4529,-2.4482,-2.4409,-2.4334,-2.4279,-2.4158,-2.4092,-2.4043,-2.4052,-2.3998,-2.4032,-2.4071,-2.4045,-2.405,-2.4054,-2.406,-2.4063,-2.403,-2.4031,-2.4031,0,-2.4999,-2.4909,-2.4875,-2.4748,-2.4677,-2.4616,-2.4552,-2.4488,-2.4443,-2.4342,-2.4271,-2.4207,-2.4108,-2.4047,-2.4016,-2.3995,-2.3953,-2.3946,-2.3952,-2.3946,-2.3917,-2.3922,-2.3927,-2.3863,-2.3863,-2.3863,0,0,-2.4967,-2.4903,-2.4775,-2.4728,-2.469,-2.4581,-2.4537,-2.4475,-2.4387,-2.4352,-2.4267,-2.4184,-2.4114,-2.4069,-2.3996,-2.3943,-2.3916,-2.3929,-2.3937,-2.3944,-2.3942,-2.3914,-2.392,-2.3862,-2.3862,-2.3862,0,0,-2.4951,-2.48,-2.4758,-2.4691,-2.461,-2.4479,-2.4456,-2.4402,-2.4325,-2.432,-2.4213,-2.4186,-2.4127,-2.4066,-2.407,-2.3981,-2.3945,-2.3941,-2.4023,-2.4031,-2.4039,-2.4055,-2.399,0,0,0,0,0,-2.4843,-2.4819,-2.4783,-2.4756,-2.4593,-2.45,-2.4479,-2.4389,-2.4367,-2.4351,-2.4271,-2.4214,-2.4047,-2.4048,-2.4023,-2.402,-2.3854,-2.3856,-2.3857,-2.3949,-2.3959,-2.3967,0,0,0,0,0,0,-2.4832,-2.4799,-2.4783,-2.4654,-2.4616,-2.45,-2.4442,-2.4417,-2.4366,-2.4356,-2.4232,-2.421,-2.4133,-2.4054,-2.4033,-2.4032,-2.3996,-2.3855,-2.3856,-2.3857,-2.3952,-2.396,-2.3967,0,0,0,0,0,-2.4822,-2.4796,-2.4557,-2.4653,-2.462,-2.4496,-2.4442,-2.4421,-2.438,-2.4255,-2.4232,-2.4317,-2.4135,-2.4112,-2.4041,-2.4044,-2.401,-2.4003,-2.3856,-2.3857,-2.3858,-2.3956,0,0,0,0,0,0,-2.4815,-2.4776,-2.4548,-2.4535,-2.4654,-2.4501,-2.4473,-2.4424,-2.4279,-2.4257,-2.4335,-2.4329,-2.4137,-2.4118,-2.41,-2.4053,-2.4021,-2.4013,-2.4009,-2.3857,-2.3857,-2.3858,0,0,0,0,0,0,-2.479,-2.4766,-2.4542,-2.4548,-2.4535,-2.4506,-2.4481,-2.4407,-2.4279,-2.4367,-2.4358,-2.4334,-2.4163,-2.4123,-2.4109,-2.3997,-2.4029,-2.4022,-2.4017,-2.4014,-2.3857,-2.3858,0,0,0,0,0,0,-2.4778,-2.4757,-2.4551,-2.4541,-2.4529,-2.4374,-2.4439,-2.4276,-2.4284,-2.4375,-2.4283,-2.4282,-2.4169,-2.4153,-2.4114,-2.4009,-2.4,-2.4029,-2.4024,-2.4021,-2.4019,0,0,0,0,0,0,0,-2.4769,-2.4927,-2.4627,-2.4535,-2.4524,-2.4413,-2.441,-2.4406,-2.4284,-2.4283,-2.4283,-2.4282,-2.407,-2.4062,-2.4054,-2.4019,0,0,-2.403,-2.4026,0,0,0,0,0,0,0,0,-2.4934,-2.4929,-2.4626,-2.4624,-2.4621,-2.4413,-2.441,-2.4407,-2.4284,-2.4283,-2.4283,-2.4282,-2.4068,-2.4062,-2.4055,0,0,0,0,0,0,0,0,0,0,0,0,0,0,0,-2.4626,-2.4624,0,-2.4412,-2.441,-2.4407,-2.4284,-2.4283,-2.4283,-2.4283,-2.4066,-2.4061,-2.4056,0,0,0,0,0,0,0,0,0,0,0,0,0,0,0,0,0,0,0,0,0,0,0,0,0,0,0,0,0,0,0,0,0,0,0,0,0,0,0,0,0,0,0,0,0,0,0,0,0,0,0,0,0,0,0,0,0,0,0,0,0,0,0,0,0,0,0,0,0]}],[{"header":{"parameterUnit":"kt","parameterCategory":2,"dx":1,"dy":1,"la1":30.253999710083008,"la2":30.299108505249023,"lo1":-89.0895004272461,"lo2":-89.04439544677734,"nx":28,"ny":28,"refTime":"2022-10-31T21:00:00:Z","depth":0,"parameterNumber":2,"parameterNumberName":"V-component_of_WINDS"},"data":[-0.942,-0.9454,-0.9451,-0.9489,-0.9492,-0.9517,-0.9525,-0.9535,-0.9542,-0.9572,-0.9588,-0.9587,-0.9592,-0.9611,-0.9629,-0.9628,-0.9638,-0.9654,-0.9651,-0.9582,-0.9572,-0.9563,-0.9556,-0.9655,-0.9655,-0.9724,-0.9725,-0.9725,-0.9373,-0.9377,-0.9395,-0.941,-0.9426,-0.9409,-0.9419,-0.9434,-0.9457,-0.9464,-0.948,-0.9505,-0.9525,-0.9524,-0.9542,-0.9559,-0.9553,-0.9565,-0.9566,-0.9568,-0.9493,-0.9485,-0.957,-0.957,-0.957,-0.957,-0.957,-0.957,-0.9288,-0.9309,-0.9315,-0.9335,-0.9341,-0.9351,-0.937,-0.9368,-0.9385,-0.9404,-0.9394,-0.942,-0.9426,-0.9445,-0.945,-0.9471,-0.9457,-0.9469,-0.9473,-0.9477,-0.9484,-0.9391,-0.9472,-0.9472,-0.9472,-0.9472,-0.9472,0,-0.9226,-0.9221,-0.9237,-0.9253,-0.9267,-0.9278,-0.9288,-0.9299,-0.9286,-0.9301,-0.9322,-0.9334,-0.9356,-0.9376,-0.9391,-0.9393,-0.9379,-0.9374,-0.9384,-0.9392,-0.9398,-0.94,-0.9282,-0.9373,-0.9372,-0.9371,-0.9371,-0.9371,-0.9144,-0.9166,-0.917,-0.9182,-0.9186,-0.9205,-0.9216,-0.9203,-0.9215,-0.9224,-0.9242,-0.9261,-0.9276,-0.9309,-0.9307,-0.9324,-0.9317,-0.9353,-0.932,-0.9326,-0.9323,-0.9323,-0.9327,-0.9361,-0.9363,-0.9364,-0.9364,0,-0.9099,-0.909,-0.9124,-0.9125,-0.9125,-0.915,-0.9151,-0.917,-0.9165,-0.9191,-0.9196,-0.9189,-0.921,-0.9201,-0.9221,-0.9216,-0.926,-0.925,-0.9259,-0.9258,-0.9293,-0.9291,-0.9398,-0.9413,-0.9306,-0.9307,-0.9307,0,-0.9027,-0.9056,-0.9044,-0.9063,-0.9096,-0.9081,-0.9114,-0.9114,-0.9118,-0.9138,-0.9117,-0.9137,-0.9121,-0.9139,-0.9132,-0.9165,-0.9167,-0.9167,-0.9166,-0.9172,-0.9172,-0.9181,-0.9178,-0.9155,-0.9155,-0.9154,-0.9154,0,-0.8961,-0.8986,-0.9017,-0.9022,-0.9025,-0.904,-0.9042,-0.9046,-0.9056,-0.9067,-0.9075,-0.9088,-0.9096,-0.9107,-0.9098,-0.9076,-0.9137,-0.9105,-0.9137,-0.9138,-0.9154,-0.9154,-0.9247,-0.9153,-0.9153,-0.9153,-0.9153,0,-0.8903,-0.8914,-0.8959,-0.8962,-0.8969,-0.8989,-0.9002,-0.9016,-0.9022,-0.9019,-0.9027,-0.9013,-0.9038,-0.9008,-0.9043,-0.9018,-0.9028,-0.9028,-0.9031,-0.9036,-0.9003,-0.9062,-0.9148,-0.9159,-0.9037,-0.9036,-0.9035,0,-0.8831,-0.8873,-0.8861,-0.8904,-0.8922,-0.89,-0.8921,-0.8926,-0.8923,-0.8939,-0.8935,-0.8952,-0.8927,-0.8932,-0.895,-0.8948,-0.898,-0.8942,-0.8969,-0.897,-0.8973,-0.9051,-0.9068,-0.913,-0.9022,-0.9023,-0.9024,0,-0.8775,-0.8777,-0.8786,-0.8791,-0.8795,-0.8809,-0.8833,-0.8847,-0.8859,-0.8865,-0.8886,-0.8908,-0.8891,-0.8898,-0.8888,-0.8907,-0.8958,-0.8887,-0.8887,-0.8903,-0.9013,-0.903,-0.904,-0.8947,-0.8948,-0.8949,-0.9014,0,-0.8697,-0.8715,-0.8736,-0.8746,-0.8755,-0.8779,-0.877,-0.8781,-0.877,-0.8767,-0.8796,-0.8796,-0.881,-0.8817,-0.8806,-0.8852,-0.8844,-0.8825,-0.8798,-0.8847,-0.8869,-0.8877,-0.8767,-0.8766,-0.8765,-0.8764,0,0,-0.8632,-0.8658,-0.8644,-0.8666,-0.8674,-0.8649,-0.8677,-0.8681,-0.8689,-0.8695,-0.8679,-0.8711,-0.8711,-0.8748,-0.8762,-0.8766,-0.8775,-0.8757,-0.8823,-0.8829,-0.8835,-0.8858,-0.8867,-0.8763,-0.8763,-0.8763,-0.8762,0,-0.8602,-0.8602,-0.8629,-0.8632,-0.8637,-0.8631,-0.8637,-0.8638,-0.8636,-0.8663,-0.8644,-0.8659,-0.8683,-0.8688,-0.8694,-0.8752,-0.8737,-0.8756,-0.8792,-0.8815,-0.8823,-0.883,-0.8854,-0.8862,-0.876,-0.8761,-0.8761,0,-0.8548,-0.8548,-0.8559,-0.8572,-0.8575,-0.8593,-0.8561,-0.858,-0.8594,-0.8566,-0.8594,-0.8592,-0.8597,-0.8631,-0.8645,-0.8631,-0.8704,-0.8677,-0.8682,-0.8684,-0.8706,-0.8715,-0.8723,-0.8618,-0.8617,-0.8617,0,0,-0.8524,-0.854,-0.8536,-0.8565,-0.8568,-0.8559,-0.8567,-0.8558,-0.8562,-0.8564,-0.8562,-0.8567,-0.8581,-0.8591,-0.8603,-0.8641,-0.8643,-0.866,-0.8667,-0.8673,-0.8678,-0.8701,-0.871,-0.8615,-0.8615,-0.8615,0,0,-0.8512,-0.8509,-0.8497,-0.853,-0.8535,-0.8532,-0.8551,-0.8537,-0.8547,-0.8544,-0.8528,-0.8529,-0.8559,-0.8559,-0.8538,-0.8594,-0.8566,-0.8571,-0.8594,-0.8602,-0.8609,-0.861,-0.8506,0,0,0,0,0,-0.8477,-0.8509,-0.8499,-0.8503,-0.8519,-0.8538,-0.854,-0.8528,-0.851,-0.8525,-0.8521,-0.8504,-0.8545,-0.8525,-0.853,-0.8554,-0.8594,-0.8598,-0.8601,-0.864,-0.8648,-0.8656,0,0,0,0,0,0,-0.8478,-0.8483,-0.8498,-0.8497,-0.85,-0.8537,-0.8503,-0.8501,-0.8508,-0.8504,-0.8505,-0.8504,-0.8494,-0.8522,-0.8526,-0.855,-0.8504,-0.8595,-0.8599,-0.8601,-0.8643,-0.865,-0.8656,0,0,0,0,0,-0.8479,-0.8483,-0.8512,-0.8496,-0.8499,-0.8491,-0.8502,-0.8499,-0.8505,-0.8499,-0.8497,-0.8495,-0.8495,-0.8497,-0.8525,-0.8549,-0.8502,-0.8503,-0.8597,-0.86,-0.8602,-0.8646,0,0,0,0,0,0,-0.848,-0.8481,-0.8512,-0.8513,-0.8483,-0.8489,-0.849,-0.8498,-0.8499,-0.8497,-0.8488,-0.8485,-0.8496,-0.8498,-0.85,-0.8549,-0.8499,-0.8501,-0.8502,-0.8599,-0.8601,-0.8603,0,0,0,0,0,0,-0.8479,-0.8482,-0.8512,-0.8496,-0.8495,-0.8487,-0.8488,-0.8508,-0.8499,-0.8488,-0.8485,-0.8487,-0.8493,-0.8498,-0.85,-0.8532,-0.8497,-0.8499,-0.85,-0.8501,-0.8601,-0.8603,0,0,0,0,0,0,-0.848,-0.8483,-0.8496,-0.8495,-0.8494,-0.8498,-0.8505,-0.8522,-0.8485,-0.8488,-0.8482,-0.848,-0.8494,-0.8495,-0.85,-0.8532,-0.8532,-0.8497,-0.8498,-0.8499,-0.85,0,0,0,0,0,0,0,-0.8481,-0.8468,-0.8509,-0.8494,-0.8493,-0.8517,-0.8517,-0.8517,-0.8485,-0.8483,-0.8482,-0.8481,-0.8489,-0.8491,-0.8492,-0.8532,0,0,-0.8497,-0.8498,0,0,0,0,0,0,0,0,-0.8467,-0.8468,-0.8509,-0.8509,-0.851,-0.8517,-0.8517,-0.8517,-0.8485,-0.8483,-0.8482,-0.8481,-0.8489,-0.8491,-0.8492,0,0,0,0,0,0,0,0,0,0,0,0,0,0,0,-0.8509,-0.8509,0,-0.8517,-0.8517,-0.8517,-0.8485,-0.8484,-0.8483,-0.8482,-0.849,-0.8491,-0.8492,0,0,0,0,0,0,0,0,0,0,0,0,0,0,0,0,0,0,0,0,0,0,0,0,0,0,0,0,0,0,0,0,0,0,0,0,0,0,0,0,0,0,0,0,0,0,0,0,0,0,0,0,0,0,0,0,0,0,0,0,0,0,0,0,0,0,0,0,0]}]]]